STARLINK-37931

Last updated on Sun Aug 09 2026 00:02:04 GMT+0000 (Coordinated Universal Time)

1 69963U 26157W 26220.58335648 -.02700016 00000+0 -70235-1 0 9993 2 69963 53.1601 174.5021 0000529 79.2644 211.4092 15.42447831 6081
UTC large
Height (km)
Speed (km/s)
/
Latitude / Longitude
Inclination (degrees)
Orbital Period (minutes)
Azimuth
Elevation
Range (km)
Doppler Factor

Next 0 passes for location: London (51.5072 / 0.1276)

No passes found over London.
STARLINK-37931